Time,TemperatureF,DewpointF,PressureIn,WindDirection,WindDirectionDegrees,WindSpeedMPH,WindSpeedGustMPH,Humidity,HourlyPrecipIn,Conditions,Clouds,dailyrainin,SoftwareType,DateUTC
2013-06-04 00:02:00,64.4,53.6,29.59,NE,34,0.0,3.6,68,0.00,,,0.00,WUHU216WMR968SP,2013-06-04 05:02:00,
2013-06-04 00:07:00,64.2,53.6,29.59,NE,34,0.0,3.6,68,0.00,,,0.00,WUHU216WMR968SP,2013-06-04 05:07:00,
2013-06-04 00:12:00,64.2,53.6,29.59,NE,34,0.0,0.0,68,0.00,,,0.00,WUHU216WMR968SP,2013-06-04 05:12:00,
2013-06-04 00:17:00,64.0,53.6,29.59,NE,34,0.0,0.0,68,0.00,,,0.00,WUHU216WMR968SP,2013-06-04 05:17:00,
2013-06-04 00:22:00,63.9,53.6,29.59,NE,34,0.0,0.0,68,0.00,,,0.00,WUHU216WMR968SP,2013-06-04 05:22:00,
2013-06-04 00:27:00,63.7,55.4,29.59,NE,34,0.0,0.0,71,0.00,,,0.00,WUHU216WMR968SP,2013-06-04 05:27:00,
2013-06-04 00:32:00,63.5,55.4,29.59,NE,34,0.0,0.0,73,0.00,,,0.00,WUHU216WMR968SP,2013-06-04 05:32:00,
2013-06-04 00:37:00,63.0,55.4,29.59,NE,34,0.0,0.0,75,0.00,,,0.00,WUHU216WMR968SP,2013-06-04 05:37:00,
2013-06-04 00:42:00,62.8,55.4,29.59,NE,34,0.0,0.0,77,0.00,,,0.00,WUHU216WMR968SP,2013-06-04 05:42:00,
2013-06-04 00:47:00,62.2,55.4,29.59,NE,34,0.0,0.0,79,0.00,,,0.00,WUHU216WMR968SP,2013-06-04 05:47:00,
2013-06-04 00:52:00,62.1,57.2,29.59,NE,34,0.0,0.0,80,0.00,,,0.00,WUHU216WMR968SP,2013-06-04 05:52:00,
2013-06-04 00:57:00,61.7,57.2,29.59,NE,34,0.0,0.0,81,0.00,,,0.00,WUHU216WMR968SP,2013-06-04 05:57:00,
2013-06-04 01:02:00,61.5,55.4,29.59,NE,34,0.0,0.0,82,0.00,,,0.00,WUHU216WMR968SP,2013-06-04 06:02:00,
2013-06-04 01:07:00,61.3,55.4,29.59,NE,34,0.0,2.7,82,0.00,,,0.00,WUHU216WMR968SP,2013-06-04 06:07:00,
2013-06-04 01:12:00,61.3,55.4,29.59,NE,34,0.0,2.7,83,0.00,,,0.00,WUHU216WMR968SP,2013-06-04 06:12:00,
2013-06-04 01:17:00,61.2,55.4,29.59,NE,34,0.0,0.0,83,0.00,,,0.00,WUHU216WMR968SP,2013-06-04 06:17:00,
2013-06-04 01:22:00,61.0,55.4,29.59,NE,34,0.0,0.0,83,0.00,,,0.00,WUHU216WMR968SP,2013-06-04 06:22:00,
2013-06-04 01:27:00,61.0,55.4,29.59,NE,34,0.0,0.0,83,0.00,,,0.00,WUHU216WMR968SP,2013-06-04 06:27:00,
2013-06-04 01:32:00,61.0,55.4,29.59,NE,34,0.0,0.0,83,0.00,,,0.00,WUHU216WMR968SP,2013-06-04 06:32:00,
2013-06-04 01:37:00,61.2,55.4,29.59,NE,34,0.0,2.7,84,0.00,,,0.00,WUHU216WMR968SP,2013-06-04 06:37:00,
2013-06-04 01:42:00,61.2,55.4,29.59,NE,35,0.0,4.0,84,0.00,,,0.00,WUHU216WMR968SP,2013-06-04 06:42:00,
2013-06-04 01:47:00,61.2,55.4,29.59,North,8,0.0,4.0,84,0.00,,,0.00,WUHU216WMR968SP,2013-06-04 06:47:00,
2013-06-04 01:52:00,61.3,55.4,29.59,North,7,2.2,4.0,84,0.00,,,0.00,WUHU216WMR968SP,2013-06-04 06:52:00,
2013-06-04 01:57:00,61.5,55.4,29.59,North,7,0.0,4.0,85,0.00,,,0.00,WUHU216WMR968SP,2013-06-04 06:57:00,
2013-06-04 02:02:00,61.3,55.4,29.62,North,7,0.0,2.7,85,0.00,,,0.00,WUHU216WMR968SP,2013-06-04 07:02:00,
2013-06-04 02:07:00,61.0,55.4,29.62,North,7,0.0,0.0,84,0.00,,,0.00,WUHU216WMR968SP,2013-06-04 07:07:00,
2013-06-04 02:12:00,60.6,55.4,29.62,North,7,0.0,0.0,85,0.00,,,0.00,WUHU216WMR968SP,2013-06-04 07:12:00,
2013-06-04 02:17:00,60.6,55.4,29.59,North,7,0.0,0.0,85,0.00,,,0.00,WUHU216WMR968SP,2013-06-04 07:17:00,
2013-06-04 02:22:00,60.6,57.2,29.59,North,7,0.0,2.2,86,0.00,,,0.00,WUHU216WMR968SP,2013-06-04 07:22:00,
2013-06-04 02:27:00,60.6,57.2,29.59,North,7,0.0,3.1,86,0.00,,,0.00,WUHU216WMR968SP,2013-06-04 07:27:00,
2013-06-04 02:32:00,60.6,57.2,29.59,North,7,0.0,3.1,86,0.00,,,0.00,WUHU216WMR968SP,2013-06-04 07:32:00,
2013-06-04 02:37:00,60.3,57.2,29.59,North,7,0.0,3.1,86,0.00,,,0.00,WUHU216WMR968SP,2013-06-04 07:37:00,
2013-06-04 02:42:00,60.3,57.2,29.59,North,7,0.0,2.7,86,0.00,,,0.00,WUHU216WMR968SP,2013-06-04 07:42:00,
2013-06-04 02:47:00,60.3,57.2,29.59,North,7,0.0,0.0,86,0.00,,,0.00,WUHU216WMR968SP,2013-06-04 07:47:00,
2013-06-04 02:52:00,60.1,57.2,29.59,North,7,0.0,0.0,86,0.00,,,0.00,WUHU216WMR968SP,2013-06-04 07:52:00,
2013-06-04 02:57:00,60.1,57.2,29.59,North,7,0.0,2.7,86,0.00,,,0.00,WUHU216WMR968SP,2013-06-04 07:57:00,
2013-06-04 03:02:00,60.1,57.2,29.59,North,7,0.0,3.1,87,0.00,,,0.00,WUHU216WMR968SP,2013-06-04 08:02:00,
2013-06-04 03:07:00,60.1,57.2,29.59,North,7,0.0,3.1,87,0.00,,,0.00,WUHU216WMR968SP,2013-06-04 08:07:00,
2013-06-04 03:12:00,60.1,57.2,29.59,North,7,0.0,3.1,87,0.00,,,0.00,WUHU216WMR968SP,2013-06-04 08:12:00,
2013-06-04 03:17:00,60.3,57.2,29.59,North,7,0.0,3.6,87,0.00,,,0.00,WUHU216WMR968SP,2013-06-04 08:17:00,
2013-06-04 03:22:00,60.3,57.2,29.59,North,7,0.0,3.6,87,0.00,,,0.00,WUHU216WMR968SP,2013-06-04 08:22:00,
2013-06-04 03:27:00,60.1,57.2,29.59,North,7,0.0,0.0,87,0.00,,,0.00,WUHU216WMR968SP,2013-06-04 08:27:00,
2013-06-04 03:32:00,60.1,57.2,29.59,North,7,0.0,0.0,87,0.00,,,0.00,WUHU216WMR968SP,2013-06-04 08:32:00,
2013-06-04 03:37:00,59.9,57.2,29.59,North,7,0.0,0.0,87,0.00,,,0.00,WUHU216WMR968SP,2013-06-04 08:37:00,
2013-06-04 03:42:00,59.7,55.4,29.59,North,7,0.0,0.0,88,0.00,,,0.00,WUHU216WMR968SP,2013-06-04 08:42:00,
2013-06-04 03:47:00,59.7,55.4,29.59,North,7,0.0,0.0,88,0.00,,,0.00,WUHU216WMR968SP,2013-06-04 08:47:00,
2013-06-04 03:52:00,59.7,55.4,29.59,North,7,0.0,0.0,88,0.00,,,0.00,WUHU216WMR968SP,2013-06-04 08:52:00,
2013-06-04 03:57:00,59.5,55.4,29.59,North,7,0.0,0.0,88,0.00,,,0.00,WUHU216WMR968SP,2013-06-04 08:57:00,
2013-06-04 04:02:00,59.5,55.4,29.59,North,7,0.0,0.0,88,0.00,,,0.00,WUHU216WMR968SP,2013-06-04 09:02:00,
2013-06-04 04:07:00,59.5,55.4,29.59,North,7,0.0,0.0,88,0.00,,,0.00,WUHU216WMR968SP,2013-06-04 09:07:00,
2013-06-04 04:12:00,59.4,55.4,29.59,North,7,0.0,0.0,88,0.00,,,0.00,WUHU216WMR968SP,2013-06-04 09:12:00,
2013-06-04 04:17:00,59.2,55.4,29.59,North,7,0.0,0.0,88,0.00,,,0.00,WUHU216WMR968SP,2013-06-04 09:17:00,
2013-06-04 04:22:00,59.2,55.4,29.59,North,7,0.0,0.0,88,0.00,,,0.00,WUHU216WMR968SP,2013-06-04 09:22:00,
2013-06-04 04:27:00,59.2,55.4,29.59,North,7,0.0,0.0,88,0.00,,,0.00,WUHU216WMR968SP,2013-06-04 09:27:00,
2013-06-04 04:32:00,59.0,55.4,29.59,North,7,0.0,0.0,88,0.00,,,0.00,WUHU216WMR968SP,2013-06-04 09:32:00,
2013-06-04 04:37:00,59.0,55.4,29.59,North,7,0.0,0.0,89,0.00,,,0.00,WUHU216WMR968SP,2013-06-04 09:37:00,
2013-06-04 04:42:00,58.8,55.4,29.59,North,7,0.0,0.0,89,0.00,,,0.00,WUHU216WMR968SP,2013-06-04 09:42:00,
2013-06-04 04:47:00,58.8,55.4,29.59,North,7,0.0,0.0,89,0.00,,,0.00,WUHU216WMR968SP,2013-06-04 09:47:00,
2013-06-04 04:52:00,58.8,55.4,29.59,North,7,0.0,0.0,89,0.00,,,0.00,WUHU216WMR968SP,2013-06-04 09:52:00,
2013-06-04 04:57:00,59.0,55.4,29.59,North,7,0.0,0.0,89,0.00,,,0.00,WUHU216WMR968SP,2013-06-04 09:57:00,
2013-06-04 05:02:00,59.0,55.4,29.59,North,7,0.0,0.0,89,0.00,,,0.00,WUHU216WMR968SP,2013-06-04 10:02:00,
2013-06-04 05:07:00,58.8,55.4,29.59,North,7,0.0,0.0,89,0.00,,,0.00,WUHU216WMR968SP,2013-06-04 10:07:00,
2013-06-04 05:12:00,59.0,55.4,29.59,North,7,0.0,0.0,89,0.00,,,0.00,WUHU216WMR968SP,2013-06-04 10:12:00,
2013-06-04 05:17:00,59.0,55.4,29.59,North,7,0.0,0.0,89,0.00,,,0.00,WUHU216WMR968SP,2013-06-04 10:17:00,
2013-06-04 05:22:00,58.8,55.4,29.59,North,7,0.0,0.0,90,0.00,,,0.00,WUHU216WMR968SP,2013-06-04 10:22:00,
2013-06-04 05:27:00,58.8,55.4,29.59,North,7,0.0,2.7,90,0.00,,,0.00,WUHU216WMR968SP,2013-06-04 10:27:00,
2013-06-04 05:32:00,59.0,55.4,29.59,North,7,0.0,2.7,90,0.00,,,0.00,WUHU216WMR968SP,2013-06-04 10:32:00,
2013-06-04 05:37:00,59.2,55.4,29.59,North,7,0.0,0.0,90,0.00,,,0.00,WUHU216WMR968SP,2013-06-04 10:37:00,
2013-06-04 05:42:00,59.2,55.4,29.59,North,7,0.0,0.0,90,0.00,,,0.00,WUHU216WMR968SP,2013-06-04 10:42:00,
2013-06-04 05:47:00,59.2,55.4,29.59,North,7,0.0,0.0,90,0.00,,,0.00,WUHU216WMR968SP,2013-06-04 10:47:00,
2013-06-04 05:52:00,59.4,55.4,29.59,East,88,0.0,2.7,90,0.00,,,0.00,WUHU216WMR968SP,2013-06-04 10:52:00,
2013-06-04 05:57:00,59.4,55.4,29.59,ESE,123,0.0,2.7,90,0.00,,,0.00,WUHU216WMR968SP,2013-06-04 10:57:00,
2013-06-04 06:02:00,59.5,57.2,29.59,South,174,0.0,3.1,91,0.00,,,0.00,WUHU216WMR968SP,2013-06-04 11:02:00,
2013-06-04 06:07:00,59.9,59.0,29.59,ESE,120,0.0,3.1,91,0.00,,,0.00,WUHU216WMR968SP,2013-06-04 11:07:00,
2013-06-04 06:12:00,60.4,59.0,29.59,NE,48,0.0,3.6,91,0.00,,,0.00,WUHU216WMR968SP,2013-06-04 11:12:00,
2013-06-04 06:17:00,61.0,59.0,29.59,East,101,0.0,3.6,91,0.00,,,0.00,WUHU216WMR968SP,2013-06-04 11:17:00,
2013-06-04 06:22:00,61.2,59.0,29.59,NE,38,0.0,3.6,91,0.00,,,0.00,WUHU216WMR968SP,2013-06-04 11:22:00,
2013-06-04 06:27:00,61.5,59.0,29.59,NE,38,0.0,3.6,91,0.00,,,0.00,WUHU216WMR968SP,2013-06-04 11:27:00,
2013-06-04 06:32:00,61.9,60.8,29.59,ENE,61,0.0,3.6,91,0.00,,,0.00,WUHU216WMR968SP,2013-06-04 11:32:00,
2013-06-04 06:37:00,62.4,60.8,29.59,East,87,0.0,3.6,91,0.00,,,0.00,WUHU216WMR968SP,2013-06-04 11:37:00,
2013-06-04 06:42:00,62.6,60.8,29.59,East,87,0.0,2.7,91,0.00,,,0.00,WUHU216WMR968SP,2013-06-04 11:42:00,
2013-06-04 06:47:00,62.8,60.8,29.59,East,86,0.0,0.0,91,0.00,,,0.00,WUHU216WMR968SP,2013-06-04 11:47:00,
2013-06-04 06:52:00,63.3,59.0,29.59,East,86,0.0,0.0,90,0.00,,,0.00,WUHU216WMR968SP,2013-06-04 11:52:00,
2013-06-04 06:57:00,63.9,60.8,29.59,East,79,0.0,2.7,90,0.00,,,0.00,WUHU216WMR968SP,2013-06-04 11:57:00,
2013-06-04 07:02:00,64.2,60.8,29.62,NNW,339,0.0,4.0,90,0.00,,,0.00,WUHU216WMR968SP,2013-06-04 12:02:00,
2013-06-04 07:07:00,64.6,60.8,29.62,East,91,0.0,4.0,89,0.00,,,0.00,WUHU216WMR968SP,2013-06-04 12:07:00,
2013-06-04 07:12:00,64.8,60.8,29.62,East,91,0.0,2.7,89,0.00,,,0.00,WUHU216WMR968SP,2013-06-04 12:12:00,
2013-06-04 07:17:00,64.9,60.8,29.62,East,91,0.0,2.2,86,0.00,,,0.00,WUHU216WMR968SP,2013-06-04 12:17:00,
2013-06-04 07:22:00,65.1,59.0,29.62,NNE,22,0.0,2.7,82,0.00,,,0.00,WUHU216WMR968SP,2013-06-04 12:22:00,
2013-06-04 07:27:00,65.8,60.8,29.62,NNE,17,0.0,2.7,82,0.00,,,0.00,WUHU216WMR968SP,2013-06-04 12:27:00,
2013-06-04 07:32:00,66.6,60.8,29.62,NNE,17,0.0,2.7,81,0.00,,,0.00,WUHU216WMR968SP,2013-06-04 12:32:00,
2013-06-04 07:37:00,67.5,60.8,29.62,East,97,0.0,2.2,79,0.00,,,0.00,WUHU216WMR968SP,2013-06-04 12:37:00,
2013-06-04 07:42:00,67.8,60.8,29.62,East,97,0.0,2.7,77,0.00,,,0.00,WUHU216WMR968SP,2013-06-04 12:42:00,
2013-06-04 07:47:00,68.2,59.0,29.62,East,97,0.0,2.7,73,0.00,,,0.00,WUHU216WMR968SP,2013-06-04 12:47:00,
2013-06-04 07:52:00,68.4,57.2,29.62,East,96,0.0,0.0,69,0.00,,,0.00,WUHU216WMR968SP,2013-06-04 12:52:00,
2013-06-04 07:57:00,68.5,55.4,29.62,East,96,0.0,0.0,65,0.00,,,0.00,WUHU216WMR968SP,2013-06-04 12:57:00,
2013-06-04 08:02:00,68.5,51.8,29.62,NNE,19,0.0,0.0,57,0.00,,,0.00,WUHU216WMR968SP,2013-06-04 13:02:00,
2013-06-04 08:07:00,69.1,53.6,29.62,NNE,19,0.0,2.2,55,0.00,,,0.00,WUHU216WMR968SP,2013-06-04 13:07:00,
2013-06-04 08:12:00,69.8,51.8,29.62,NNE,19,0.0,2.2,53,0.00,,,0.00,WUHU216WMR968SP,2013-06-04 13:12:00,
2013-06-04 08:17:00,70.2,51.8,29.62,North,0,0.0,2.7,53,0.00,,,0.00,WUHU216WMR968SP,2013-06-04 13:17:00,
2013-06-04 08:22:00,70.9,53.6,29.62,North,0,0.0,3.1,52,0.00,,,0.00,WUHU216WMR968SP,2013-06-04 13:22:00,
2013-06-04 08:27:00,73.0,51.8,29.62,South,176,2.8,4.0,46,0.00,,,0.00,WUHU216WMR968SP,2013-06-04 13:27:00,
2013-06-04 08:32:00,76.6,50.0,29.62,ESE,108,0.0,4.0,38,0.00,,,0.00,WUHU216WMR968SP,2013-06-04 13:32:00,
2013-06-04 08:37:00,79.5,46.4,29.62,ENE,77,0.0,3.6,32,0.00,,,0.00,WUHU216WMR968SP,2013-06-04 13:37:00,
2013-06-04 08:42:00,80.8,44.6,29.62,ESE,121,0.0,4.0,29,0.00,,,0.00,WUHU216WMR968SP,2013-06-04 13:42:00,
2013-06-04 08:47:00,81.9,46.4,29.62,ESE,122,2.2,4.0,29,0.00,,,0.00,WUHU216WMR968SP,2013-06-04 13:47:00,
2013-06-04 08:52:00,82.6,46.4,29.62,NNE,32,0.0,4.0,28,0.00,,,0.00,WUHU216WMR968SP,2013-06-04 13:52:00,
2013-06-04 08:57:00,80.4,46.4,29.62,NNE,30,2.9,5.4,30,0.00,,,0.00,WUHU216WMR968SP,2013-06-04 13:57:00,
2013-06-04 09:02:00,78.8,46.4,29.65,East,100,0.0,5.4,31,0.00,,,0.00,WUHU216WMR968SP,2013-06-04 14:02:00,
2013-06-04 09:07:00,78.4,46.4,29.65,NNE,25,2.6,4.0,32,0.00,,,0.00,WUHU216WMR968SP,2013-06-04 14:07:00,
2013-06-04 09:12:00,77.9,48.2,29.65,ESE,102,0.0,4.0,34,0.00,,,0.00,WUHU216WMR968SP,2013-06-04 14:12:00,
2013-06-04 09:17:00,78.6,46.4,29.65,NNE,22,0.0,3.6,32,0.00,,,0.00,WUHU216WMR968SP,2013-06-04 14:17:00,
2013-06-04 09:22:00,78.4,46.4,29.65,NNE,22,0.0,3.1,33,0.00,,,0.00,WUHU216WMR968SP,2013-06-04 14:22:00,
2013-06-04 09:27:00,81.3,46.4,29.65,North,6,0.0,3.6,31,0.00,,,0.00,WUHU216WMR968SP,2013-06-04 14:27:00,
2013-06-04 09:32:00,81.5,48.2,29.62,ESE,111,2.7,4.0,30,0.00,,,0.00,WUHU216WMR968SP,2013-06-04 14:32:00,
2013-06-04 09:37:00,81.1,48.2,29.62,SE,143,2.5,4.9,32,0.00,,,0.00,WUHU216WMR968SP,2013-06-04 14:37:00,
2013-06-04 09:42:00,81.9,50.0,29.62,SE,140,0.0,4.9,32,0.00,,,0.00,WUHU216WMR968SP,2013-06-04 14:42:00,
2013-06-04 09:47:00,81.5,48.2,29.62,East,88,2.2,3.6,31,0.00,,,0.00,WUHU216WMR968SP,2013-06-04 14:47:00,
2013-06-04 09:52:00,81.0,48.2,29.62,ESE,106,2.7,4.0,32,0.00,,,0.00,WUHU216WMR968SP,2013-06-04 14:52:00,
2013-06-04 09:57:00,81.0,46.4,29.62,East,84,2.4,4.0,31,0.00,,,0.00,WUHU216WMR968SP,2013-06-04 14:57:00,
2013-06-04 10:02:00,80.8,48.2,29.62,ESE,112,2.2,4.0,32,0.00,,,0.00,WUHU216WMR968SP,2013-06-04 15:02:00,
2013-06-04 10:07:00,81.3,46.4,29.62,SSE,160,4.0,5.8,31,0.00,,,0.00,WUHU216WMR968SP,2013-06-04 15:07:00,
2013-06-04 10:12:00,81.9,50.0,29.62,South,170,2.2,5.8,32,0.00,,,0.00,WUHU216WMR968SP,2013-06-04 15:12:00,
2013-06-04 10:17:00,82.0,50.0,29.62,South,174,2.2,4.9,33,0.00,,,0.00,WUHU216WMR968SP,2013-06-04 15:17:00,
2013-06-04 10:22:00,82.2,50.0,29.62,NE,48,0.0,4.9,32,0.00,,,0.00,WUHU216WMR968SP,2013-06-04 15:22:00,
2013-06-04 10:27:00,82.2,50.0,29.62,ESE,102,2.2,4.0,32,0.00,,,0.00,WUHU216WMR968SP,2013-06-04 15:27:00,
2013-06-04 10:32:00,82.0,48.2,29.62,North,5,2.2,3.6,31,0.00,,,0.00,WUHU216WMR968SP,2013-06-04 15:32:00,
2013-06-04 10:37:00,82.0,48.2,29.62,ESE,112,2.5,4.9,31,0.00,,,0.00,WUHU216WMR968SP,2013-06-04 15:37:00,
2013-06-04 10:42:00,82.6,48.2,29.62,ENE,62,0.0,4.9,30,0.00,,,0.00,WUHU216WMR968SP,2013-06-04 15:42:00,
2013-06-04 10:47:00,83.1,48.2,29.62,SSE,147,3.3,5.8,30,0.00,,,0.00,WUHU216WMR968SP,2013-06-04 15:47:00,
2013-06-04 10:52:00,83.3,48.2,29.62,East,94,2.7,5.8,28,0.00,,,0.00,WUHU216WMR968SP,2013-06-04 15:52:00,
2013-06-04 10:57:00,83.3,48.2,29.62,ESE,110,3.1,6.3,29,0.00,,,0.00,WUHU216WMR968SP,2013-06-04 15:57:00,
2013-06-04 11:02:00,83.5,48.2,29.62,East,81,0.0,6.3,29,0.00,,,0.00,WUHU216WMR968SP,2013-06-04 16:02:00,
2013-06-04 11:07:00,83.3,48.2,29.62,North,357,0.0,4.9,28,0.00,,,0.00,WUHU216WMR968SP,2013-06-04 16:07:00,
2013-06-04 11:12:00,83.5,48.2,29.62,East,97,0.0,3.6,28,0.00,,,0.00,WUHU216WMR968SP,2013-06-04 16:12:00,
2013-06-04 11:17:00,84.4,48.2,29.62,East,84,2.2,3.6,29,0.00,,,0.00,WUHU216WMR968SP,2013-06-04 16:17:00,
2013-06-04 11:22:00,84.6,44.6,29.62,NNE,17,3.1,5.4,25,0.00,,,0.00,WUHU216WMR968SP,2013-06-04 16:22:00,
2013-06-04 11:27:00,84.0,42.8,29.62,NE,35,2.7,5.4,24,0.00,,,0.00,WUHU216WMR968SP,2013-06-04 16:27:00,
2013-06-04 11:32:00,84.4,42.8,29.62,SE,128,2.2,4.9,24,0.00,,,0.00,WUHU216WMR968SP,2013-06-04 16:32:00,
2013-06-04 11:38:00,85.6,48.2,29.62,East,90,0.0,3.6,27,0.00,,,0.00,WUHU216WMR968SP,2013-06-04 16:38:00,
2013-06-04 11:42:00,86.4,44.6,29.62,SSW,192,3.1,4.9,23,0.00,,,0.00,WUHU216WMR968SP,2013-06-04 16:42:00,
2013-06-04 11:47:00,86.7,41.0,29.62,South,181,2.6,5.4,21,0.00,,,0.00,WUHU216WMR968SP,2013-06-04 16:47:00,
2013-06-04 11:53:00,86.7,41.0,29.62,ESE,116,2.5,5.4,20,0.00,,,0.00,WUHU216WMR968SP,2013-06-04 16:53:00,
2013-06-04 11:58:00,86.5,42.8,29.62,South,172,2.7,5.4,22,0.00,,,0.00,WUHU216WMR968SP,2013-06-04 16:58:00,
2013-06-04 12:03:00,86.5,41.0,29.62,SSW,204,4.0,5.8,21,0.00,,,0.00,WUHU216WMR968SP,2013-06-04 17:03:00,
2013-06-04 12:08:00,86.0,41.0,29.62,SSW,203,3.6,5.8,21,0.00,,,0.00,WUHU216WMR968SP,2013-06-04 17:08:00,
2013-06-04 12:13:00,86.4,42.8,29.62,South,188,4.2,6.3,22,0.00,,,0.00,WUHU216WMR968SP,2013-06-04 17:13:00,
2013-06-04 12:18:00,85.5,44.6,29.62,SSW,196,0.0,6.3,23,0.00,,,0.00,WUHU216WMR968SP,2013-06-04 17:18:00,
2013-06-04 12:23:00,85.3,42.8,29.62,ESE,107,2.2,5.4,22,0.00,,,0.00,WUHU216WMR968SP,2013-06-04 17:23:00,
2013-06-04 12:28:00,85.1,44.6,29.62,SW,222,0.0,5.4,23,0.00,,,0.00,WUHU216WMR968SP,2013-06-04 17:28:00,
2013-06-04 12:33:00,84.2,42.8,29.62,ESE,115,2.7,4.0,23,0.00,,,0.00,WUHU216WMR968SP,2013-06-04 17:33:00,
2013-06-04 12:39:00,83.5,42.8,29.62,NW,320,0.0,4.0,24,0.00,,,0.00,WUHU216WMR968SP,2013-06-04 17:39:00,
2013-06-04 12:44:00,82.8,42.8,29.62,West,274,2.2,3.6,25,0.00,,,0.00,WUHU216WMR968SP,2013-06-04 17:44:00,
2013-06-04 12:49:00,82.8,44.6,29.62,NNW,336,2.8,3.6,27,0.00,,,0.00,WUHU216WMR968SP,2013-06-04 17:49:00,
2013-06-04 12:54:00,83.1,46.4,29.62,North,357,3.1,5.4,28,0.00,,,0.00,WUHU216WMR968SP,2013-06-04 17:54:00,
2013-06-04 12:59:00,83.8,44.6,29.62,SSW,193,0.0,5.4,25,0.00,,,0.00,WUHU216WMR968SP,2013-06-04 17:59:00,
2013-06-04 13:04:00,85.1,44.6,29.62,SE,137,3.6,4.9,24,0.00,,,0.00,WUHU216WMR968SP,2013-06-04 18:04:00,
2013-06-04 13:09:00,85.8,46.4,29.62,SE,142,0.0,4.9,25,0.00,,,0.00,WUHU216WMR968SP,2013-06-04 18:09:00,
2013-06-04 13:14:00,86.4,42.8,29.62,SSW,195,2.2,4.0,22,0.00,,,0.00,WUHU216WMR968SP,2013-06-04 18:14:00,
2013-06-04 13:19:00,85.5,44.6,29.62,South,190,2.2,4.0,23,0.00,,,0.00,WUHU216WMR968SP,2013-06-04 18:19:00,
2013-06-04 13:24:00,84.7,41.0,29.62,NW,324,2.2,4.0,22,0.00,,,0.00,WUHU216WMR968SP,2013-06-04 18:24:00,
2013-06-04 13:29:00,84.2,42.8,29.62,SW,225,0.0,4.0,23,0.00,,,0.00,WUHU216WMR968SP,2013-06-04 18:29:00,
2013-06-04 13:34:00,84.4,42.8,29.62,South,186,0.0,3.6,23,0.00,,,0.00,WUHU216WMR968SP,2013-06-04 18:34:00,
2013-06-04 13:39:00,84.7,44.6,29.62,South,186,0.0,3.6,25,0.00,,,0.00,WUHU216WMR968SP,2013-06-04 18:39:00,
2013-06-04 13:44:00,85.3,44.6,29.62,NW,322,0.0,3.6,24,0.00,,,0.00,WUHU216WMR968SP,2013-06-04 18:44:00,
2013-06-04 13:49:00,84.6,44.6,29.62,NW,312,0.0,3.6,25,0.00,,,0.00,WUHU216WMR968SP,2013-06-04 18:49:00,
2013-06-04 13:54:00,84.4,44.6,29.62,SSW,212,0.0,3.6,25,0.00,,,0.00,WUHU216WMR968SP,2013-06-04 18:54:00,
2013-06-04 13:59:00,83.7,42.8,29.62,WNW,300,0.0,2.7,24,0.00,,,0.00,WUHU216WMR968SP,2013-06-04 18:59:00,
2013-06-04 14:04:00,83.1,42.8,29.59,WNW,298,0.0,2.7,25,0.00,,,0.00,WUHU216WMR968SP,2013-06-04 19:04:00,
2013-06-04 14:09:00,83.7,46.4,29.59,WNW,298,0.0,2.7,27,0.00,,,0.00,WUHU216WMR968SP,2013-06-04 19:09:00,
2013-06-04 14:14:00,84.4,48.2,29.59,NNE,22,0.0,5.4,29,0.00,,,0.00,WUHU216WMR968SP,2013-06-04 19:14:00,
2013-06-04 14:19:00,84.7,44.6,29.59,North,4,2.2,5.4,25,0.00,,,0.00,WUHU216WMR968SP,2013-06-04 19:19:00,
2013-06-04 14:24:00,85.1,50.0,29.59,SSW,210,2.6,4.0,28,0.00,,,0.00,WUHU216WMR968SP,2013-06-04 19:24:00,
2013-06-04 14:29:00,84.9,46.4,29.59,South,185,0.0,4.0,27,0.00,,,0.00,WUHU216WMR968SP,2013-06-04 19:29:00,
2013-06-04 14:34:00,84.9,44.6,29.59,South,185,0.0,3.1,25,0.00,,,0.00,WUHU216WMR968SP,2013-06-04 19:34:00,
2013-06-04 14:39:00,85.1,50.0,29.59,South,185,0.0,0.0,28,0.00,,,0.00,WUHU216WMR968SP,2013-06-04 19:39:00,
2013-06-04 14:44:00,85.1,46.4,29.59,South,185,0.0,2.7,26,0.00,,,0.00,WUHU216WMR968SP,2013-06-04 19:44:00,
2013-06-04 14:49:00,85.5,46.4,29.59,SW,218,0.0,3.1,26,0.00,,,0.00,WUHU216WMR968SP,2013-06-04 19:49:00,
2013-06-04 14:54:00,85.5,44.6,29.59,SSW,193,0.0,3.6,23,0.00,,,0.00,WUHU216WMR968SP,2013-06-04 19:54:00,
2013-06-04 14:59:00,84.7,42.8,29.59,WNW,287,0.0,3.6,24,0.00,,,0.00,WUHU216WMR968SP,2013-06-04 19:59:00,
2013-06-04 15:04:00,84.4,42.8,29.59,NNW,345,2.4,4.0,23,0.00,,,0.00,WUHU216WMR968SP,2013-06-04 20:04:00,
2013-06-04 15:09:00,84.4,44.6,29.59,North,0,0.0,4.0,25,0.00,,,0.00,WUHU216WMR968SP,2013-06-04 20:09:00,
2013-06-04 15:14:00,84.0,44.6,29.59,NNW,344,0.0,3.6,25,0.00,,,0.00,WUHU216WMR968SP,2013-06-04 20:14:00,
2013-06-04 15:19:00,84.2,46.4,29.56,NW,304,0.0,3.6,27,0.00,,,0.00,WUHU216WMR968SP,2013-06-04 20:19:00,
2013-06-04 15:24:00,84.0,50.0,29.56,WNW,303,0.0,3.1,30,0.00,,,0.00,WUHU216WMR968SP,2013-06-04 20:24:00,
2013-06-04 15:29:00,84.4,46.4,29.56,SSE,164,0.0,3.1,27,0.00,,,0.00,WUHU216WMR968SP,2013-06-04 20:29:00,
2013-06-04 15:34:00,85.1,50.0,29.56,East,87,0.0,3.1,28,0.00,,,0.00,WUHU216WMR968SP,2013-06-04 20:34:00,
2013-06-04 15:39:00,85.8,48.2,29.56,SSE,155,0.0,3.1,27,0.00,,,0.00,WUHU216WMR968SP,2013-06-04 20:39:00,
2013-06-04 15:44:00,86.4,44.6,29.56,North,5,0.0,4.9,24,0.00,,,0.00,WUHU216WMR968SP,2013-06-04 20:44:00,
2013-06-04 15:49:00,87.3,44.6,29.56,NNE,14,2.2,4.9,22,0.00,,,0.00,WUHU216WMR968SP,2013-06-04 20:49:00,
2013-06-04 15:54:00,86.4,44.6,29.56,NNE,25,0.0,3.1,23,0.00,,,0.00,WUHU216WMR968SP,2013-06-04 20:54:00,
2013-06-04 15:59:00,86.0,44.6,29.56,West,279,0.0,2.7,24,0.00,,,0.00,WUHU216WMR968SP,2013-06-04 20:59:00,
2013-06-04 16:04:00,85.5,44.6,29.56,SE,143,0.0,2.2,24,0.00,,,0.00,WUHU216WMR968SP,2013-06-04 21:04:00,
2013-06-04 16:09:00,85.3,48.2,29.56,North,9,0.0,0.0,27,0.00,,,0.00,WUHU216WMR968SP,2013-06-04 21:09:00,
2013-06-04 16:14:00,84.7,46.4,29.56,East,97,0.0,3.1,26,0.00,,,0.00,WUHU216WMR968SP,2013-06-04 21:14:00,
2013-06-04 16:19:00,84.9,44.6,29.56,North,9,2.7,3.6,25,0.00,,,0.00,WUHU216WMR968SP,2013-06-04 21:19:00,
2013-06-04 16:24:00,84.7,44.6,29.56,North,3,2.2,4.0,25,0.00,,,0.00,WUHU216WMR968SP,2013-06-04 21:24:00,
2013-06-04 16:29:00,84.4,48.2,29.56,NW,322,0.0,4.0,28,0.00,,,0.00,WUHU216WMR968SP,2013-06-04 21:29:00,
2013-06-04 16:34:00,84.7,48.2,29.56,SSW,198,0.0,2.7,28,0.00,,,0.00,WUHU216WMR968SP,2013-06-04 21:34:00,
2013-06-04 16:39:00,84.4,48.2,29.56,South,174,2.7,4.9,28,0.00,,,0.00,WUHU216WMR968SP,2013-06-04 21:39:00,
2013-06-04 16:44:00,84.4,46.4,29.56,SSE,160,2.7,4.9,27,0.00,,,0.00,WUHU216WMR968SP,2013-06-04 21:44:00,
2013-06-04 16:49:00,83.7,48.2,29.56,SSE,161,0.0,4.9,29,0.00,,,0.00,WUHU216WMR968SP,2013-06-04 21:49:00,
2013-06-04 16:54:00,83.3,50.0,29.56,SSE,161,0.0,0.0,30,0.00,,,0.00,WUHU216WMR968SP,2013-06-04 21:54:00,
2013-06-04 16:59:00,83.3,50.0,29.56,SSW,211,0.0,2.7,30,0.00,,,0.00,WUHU216WMR968SP,2013-06-04 21:59:00,
2013-06-04 17:04:00,82.9,48.2,29.56,WSW,247,0.0,2.7,31,0.00,,,0.00,WUHU216WMR968SP,2013-06-04 22:04:00,
2013-06-04 17:09:00,82.9,51.8,29.56,WSW,247,0.0,0.0,34,0.00,,,0.00,WUHU216WMR968SP,2013-06-04 22:09:00,
2013-06-04 17:14:00,82.6,48.2,29.56,WSW,247,0.0,0.0,31,0.00,,,0.00,WUHU216WMR968SP,2013-06-04 22:14:00,
2013-06-04 17:19:00,82.6,48.2,29.56,WSW,247,0.0,0.0,30,0.00,,,0.00,WUHU216WMR968SP,2013-06-04 22:19:00,
2013-06-04 17:24:00,82.8,48.2,29.56,WSW,247,0.0,0.0,30,0.00,,,0.00,WUHU216WMR968SP,2013-06-04 22:24:00,
2013-06-04 17:29:00,83.3,48.2,29.56,WSW,247,0.0,0.0,29,0.00,,,0.00,WUHU216WMR968SP,2013-06-04 22:29:00,
2013-06-04 17:34:00,83.3,48.2,29.53,NNW,348,0.0,2.2,29,0.00,,,0.00,WUHU216WMR968SP,2013-06-04 22:34:00,
2013-06-04 17:39:00,83.3,48.2,29.53,NNW,348,0.0,2.2,29,0.00,,,0.00,WUHU216WMR968SP,2013-06-04 22:39:00,
2013-06-04 17:44:00,83.7,50.0,29.53,NNW,348,0.0,0.0,30,0.00,,,0.00,WUHU216WMR968SP,2013-06-04 22:44:00,
2013-06-04 17:49:00,84.0,48.2,29.53,NW,317,0.0,2.2,29,0.00,,,0.00,WUHU216WMR968SP,2013-06-04 22:49:00,
2013-06-04 17:54:00,84.6,48.2,29.53,North,353,0.0,2.2,29,0.00,,,0.00,WUHU216WMR968SP,2013-06-04 22:54:00,
2013-06-04 17:59:00,85.5,48.2,29.53,North,353,0.0,2.7,27,0.00,,,0.00,WUHU216WMR968SP,2013-06-04 22:59:00,
2013-06-04 18:04:00,86.0,50.0,29.53,NE,35,0.0,4.0,28,0.00,,,0.00,WUHU216WMR968SP,2013-06-04 23:04:00,
2013-06-04 18:09:00,87.1,50.0,29.53,NNE,14,0.0,4.0,27,0.00,,,0.00,WUHU216WMR968SP,2013-06-04 23:09:00,
2013-06-04 18:14:00,88.0,44.6,29.53,NNW,346,2.7,4.0,23,0.00,,,0.00,WUHU216WMR968SP,2013-06-04 23:14:00,
2013-06-04 18:19:00,87.4,46.4,29.53,NNE,19,0.0,3.6,24,0.00,,,0.00,WUHU216WMR968SP,2013-06-04 23:19:00,
2013-06-04 18:24:00,89.1,48.2,29.53,NNE,19,0.0,3.1,24,0.00,,,0.00,WUHU216WMR968SP,2013-06-04 23:24:00,
2013-06-04 18:29:00,88.0,44.6,29.53,North,0,0.0,3.6,23,0.00,,,0.00,WUHU216WMR968SP,2013-06-04 23:29:00,
2013-06-04 18:34:00,87.1,48.2,29.53,North,0,0.0,3.6,26,0.00,,,0.00,WUHU216WMR968SP,2013-06-04 23:34:00,
2013-06-04 18:39:00,88.7,48.2,29.53,North,357,0.0,3.6,25,0.00,,,0.00,WUHU216WMR968SP,2013-06-04 23:39:00,
2013-06-04 18:44:00,90.3,48.2,29.53,North,357,0.0,2.7,24,0.00,,,0.00,WUHU216WMR968SP,2013-06-04 23:44:00,
2013-06-04 18:49:00,91.6,46.4,29.53,North,357,0.0,2.7,22,0.00,,,0.00,WUHU216WMR968SP,2013-06-04 23:49:00,
2013-06-04 18:54:00,92.3,48.2,29.53,North,357,0.0,2.2,22,0.00,,,0.00,WUHU216WMR968SP,2013-06-04 23:54:00,
2013-06-04 18:59:00,93.2,48.2,29.53,North,357,0.0,0.0,21,0.00,,,0.00,WUHU216WMR968SP,2013-06-04 23:59:00,
2013-06-04 19:04:00,93.2,46.4,29.53,North,357,0.0,0.0,20,0.00,,,0.00,WUHU216WMR968SP,2013-06-05 00:04:00,
2013-06-04 19:09:00,92.5,46.4,29.53,North,357,0.0,0.0,20,0.00,,,0.00,WUHU216WMR968SP,2013-06-05 00:09:00,
2013-06-04 19:14:00,91.8,46.4,29.53,North,357,0.0,0.0,21,0.00,,,0.00,WUHU216WMR968SP,2013-06-05 00:14:00,
2013-06-04 19:19:00,90.5,46.4,29.53,North,357,0.0,0.0,22,0.00,,,0.00,WUHU216WMR968SP,2013-06-05 00:19:00,
2013-06-04 19:24:00,87.3,48.2,29.53,North,357,0.0,2.2,26,0.00,,,0.00,WUHU216WMR968SP,2013-06-05 00:24:00,
2013-06-04 19:29:00,83.8,48.2,29.53,North,357,0.0,2.2,29,0.00,,,0.00,WUHU216WMR968SP,2013-06-05 00:29:00,
2013-06-04 19:34:00,81.3,48.2,29.53,North,357,0.0,0.0,32,0.00,,,0.00,WUHU216WMR968SP,2013-06-05 00:34:00,
2013-06-04 19:39:00,79.7,51.8,29.53,North,357,0.0,0.0,37,0.00,,,0.00,WUHU216WMR968SP,2013-06-05 00:39:00,
2013-06-04 19:44:00,78.6,51.8,29.53,North,357,0.0,0.0,39,0.00,,,0.00,WUHU216WMR968SP,2013-06-05 00:44:00,
2013-06-04 19:49:00,77.5,51.8,29.56,North,357,0.0,0.0,42,0.00,,,0.00,WUHU216WMR968SP,2013-06-05 00:49:00,
2013-06-04 19:54:00,77.0,53.6,29.56,North,357,0.0,0.0,43,0.00,,,0.00,WUHU216WMR968SP,2013-06-05 00:54:00,
2013-06-04 19:59:00,76.1,55.4,29.56,North,357,0.0,0.0,46,0.00,,,0.00,WUHU216WMR968SP,2013-06-05 00:59:00,
2013-06-04 20:04:00,75.4,53.6,29.56,North,357,0.0,0.0,47,0.00,,,0.00,WUHU216WMR968SP,2013-06-05 01:04:00,
2013-06-04 20:09:00,74.8,55.4,29.56,North,357,0.0,0.0,49,0.00,,,0.00,WUHU216WMR968SP,2013-06-05 01:09:00,
2013-06-04 20:14:00,74.7,55.4,29.56,North,357,0.0,0.0,50,0.00,,,0.00,WUHU216WMR968SP,2013-06-05 01:14:00,
2013-06-04 20:19:00,74.3,57.2,29.56,North,357,0.0,0.0,52,0.00,,,0.00,WUHU216WMR968SP,2013-06-05 01:19:00,
2013-06-04 20:24:00,73.9,55.4,29.56,North,357,0.0,0.0,52,0.00,,,0.00,WUHU216WMR968SP,2013-06-05 01:24:00,
2013-06-04 20:29:00,73.8,55.4,29.56,North,357,0.0,0.0,53,0.00,,,0.00,WUHU216WMR968SP,2013-06-05 01:29:00,
2013-06-04 20:34:00,73.6,55.4,29.56,North,357,0.0,0.0,53,0.00,,,0.00,WUHU216WMR968SP,2013-06-05 01:34:00,
2013-06-04 20:39:00,73.6,55.4,29.56,North,357,0.0,0.0,54,0.00,,,0.00,WUHU216WMR968SP,2013-06-05 01:39:00,
2013-06-04 20:44:00,73.4,57.2,29.56,North,357,0.0,0.0,55,0.00,,,0.00,WUHU216WMR968SP,2013-06-05 01:44:00,
2013-06-04 20:49:00,73.2,57.2,29.56,North,357,0.0,0.0,57,0.00,,,0.00,WUHU216WMR968SP,2013-06-05 01:49:00,
2013-06-04 20:54:00,73.0,57.2,29.56,North,357,0.0,0.0,57,0.00,,,0.00,WUHU216WMR968SP,2013-06-05 01:54:00,
2013-06-04 20:59:00,73.4,57.2,29.56,North,357,0.0,0.0,55,0.00,,,0.00,WUHU216WMR968SP,2013-06-05 01:59:00,
2013-06-04 21:04:00,73.8,55.4,29.56,North,357,0.0,0.0,53,0.00,,,0.00,WUHU216WMR968SP,2013-06-05 02:04:00,
2013-06-04 21:09:00,74.1,53.6,29.56,North,357,0.0,0.0,51,0.00,,,0.00,WUHU216WMR968SP,2013-06-05 02:09:00,
2013-06-04 21:14:00,74.7,55.4,29.56,North,357,0.0,0.0,49,0.00,,,0.00,WUHU216WMR968SP,2013-06-05 02:14:00,
2013-06-04 21:19:00,74.8,53.6,29.56,North,357,0.0,0.0,48,0.00,,,0.00,WUHU216WMR968SP,2013-06-05 02:19:00,
2013-06-04 21:24:00,74.8,53.6,29.56,North,357,0.0,0.0,47,0.00,,,0.00,WUHU216WMR968SP,2013-06-05 02:24:00,
2013-06-04 21:29:00,74.8,53.6,29.56,North,357,0.0,0.0,47,0.00,,,0.00,WUHU216WMR968SP,2013-06-05 02:29:00,
2013-06-04 21:34:00,74.7,53.6,29.56,North,357,0.0,0.0,47,0.00,,,0.00,WUHU216WMR968SP,2013-06-05 02:34:00,
2013-06-04 21:39:00,74.5,53.6,29.56,NNE,28,0.0,2.7,48,0.00,,,0.00,WUHU216WMR968SP,2013-06-05 02:39:00,
2013-06-04 21:44:00,74.3,53.6,29.56,NNE,28,0.0,2.7,48,0.00,,,0.00,WUHU216WMR968SP,2013-06-05 02:44:00,
2013-06-04 21:49:00,74.1,51.8,29.56,NNE,28,0.0,0.0,48,0.00,,,0.00,WUHU216WMR968SP,2013-06-05 02:49:00,
2013-06-04 21:54:00,74.3,53.6,29.56,NNE,28,0.0,0.0,48,0.00,,,0.00,WUHU216WMR968SP,2013-06-05 02:54:00,
2013-06-04 21:59:00,73.9,51.8,29.56,NNE,28,0.0,0.0,48,0.00,,,0.00,WUHU216WMR968SP,2013-06-05 02:59:00,
2013-06-04 22:04:00,73.8,51.8,29.59,NNE,28,0.0,0.0,48,0.00,,,0.00,WUHU216WMR968SP,2013-06-05 03:04:00,
2013-06-04 22:09:00,73.8,51.8,29.59,NNE,28,0.0,0.0,48,0.00,,,0.00,WUHU216WMR968SP,2013-06-05 03:09:00,
2013-06-04 22:14:00,73.8,51.8,29.59,SE,134,0.0,2.2,48,0.00,,,0.00,WUHU216WMR968SP,2013-06-05 03:14:00,
2013-06-04 22:19:00,74.1,51.8,29.59,East,94,0.0,2.2,47,0.00,,,0.00,WUHU216WMR968SP,2013-06-05 03:19:00,
2013-06-04 22:24:00,74.3,53.6,29.59,East,94,0.0,0.0,46,0.00,,,0.00,WUHU216WMR968SP,2013-06-05 03:24:00,
2013-06-04 22:29:00,74.3,51.8,29.59,NE,34,0.0,0.0,45,0.00,,,0.00,WUHU216WMR968SP,2013-06-05 03:29:00,
2013-06-04 22:34:00,74.3,51.8,29.59,NNE,27,0.0,2.7,45,0.00,,,0.00,WUHU216WMR968SP,2013-06-05 03:34:00,
2013-06-04 22:39:00,74.1,50.0,29.59,NNE,27,0.0,2.7,44,0.00,,,0.00,WUHU216WMR968SP,2013-06-05 03:39:00,
2013-06-04 22:44:00,73.9,50.0,29.59,East,89,0.0,3.6,44,0.00,,,0.00,WUHU216WMR968SP,2013-06-05 03:44:00,
2013-06-04 22:49:00,73.6,50.0,29.59,NE,46,0.0,4.0,44,0.00,,,0.00,WUHU216WMR968SP,2013-06-05 03:49:00,
2013-06-04 22:54:00,73.4,50.0,29.59,East,99,0.0,4.0,44,0.00,,,0.00,WUHU216WMR968SP,2013-06-05 03:54:00,
2013-06-04 22:59:00,73.2,50.0,29.59,East,99,0.0,2.2,44,0.00,,,0.00,WUHU216WMR968SP,2013-06-05 03:59:00,
2013-06-04 23:01:00,73.0,50.0,29.59,East,99,0.0,2.2,44,0.00,,,0.00,WUHU216WMR968SP,2013-06-05 04:01:00,
2013-06-04 23:02:00,73.0,50.0,29.59,East,88,0.0,2.2,44,0.00,,,0.00,WUHU216WMR968SP,2013-06-05 04:02:00,
2013-06-04 23:07:00,72.9,50.0,29.59,ENE,70,0.0,2.7,44,0.00,,,0.00,WUHU216WMR968SP,2013-06-05 04:07:00,
2013-06-04 23:12:00,72.9,50.0,29.59,East,82,0.0,2.7,44,0.00,,,0.00,WUHU216WMR968SP,2013-06-05 04:12:00,
2013-06-04 23:17:00,72.9,50.0,29.59,NE,49,0.0,2.2,43,0.00,,,0.00,WUHU216WMR968SP,2013-06-05 04:17:00,
2013-06-04 23:22:00,72.7,50.0,29.59,NE,49,0.0,0.0,43,0.00,,,0.00,WUHU216WMR968SP,2013-06-05 04:22:00,
2013-06-04 23:27:00,72.7,50.0,29.59,ESE,114,0.0,2.7,43,0.00,,,0.00,WUHU216WMR968SP,2013-06-05 04:27:00,
2013-06-04 23:32:00,72.5,50.0,29.59,ESE,110,0.0,2.7,43,0.00,,,0.00,WUHU216WMR968SP,2013-06-05 04:32:00,
2013-06-04 23:37:00,72.3,48.2,29.59,ESE,110,0.0,0.0,43,0.00,,,0.00,WUHU216WMR968SP,2013-06-05 04:37:00,
2013-06-04 23:42:00,72.0,48.2,29.59,ESE,110,0.0,0.0,44,0.00,,,0.00,WUHU216WMR968SP,2013-06-05 04:42:00,
2013-06-04 23:47:00,71.8,50.0,29.56,ESE,110,0.0,0.0,46,0.00,,,0.00,WUHU216WMR968SP,2013-06-05 04:47:00,
2013-06-04 23:52:00,71.2,51.8,29.56,ESE,110,0.0,0.0,48,0.00,,,0.00,WUHU216WMR968SP,2013-06-05 04:52:00,
2013-06-04 23:57:00,70.7,51.8,29.56,ESE,110,0.0,0.0,48,0.00,,,0.00,WUHU216WMR968SP,2013-06-05 04:57:00,